Starlink 32639

operational
NORAD ID: 62153 Int'l Des: 2024-224 Owner: SPXS Country: US Constellation: starlink
LEOCIRCULAR

Starlink 32639について

説明を読み込み中...

リアルタイム位置

3D地球を読み込み中...

次回通過

高度履歴

Altitude vs Time

uPlot chart will show altitude changes over time

軌道要素

1 62153U 24224Q 25353.43386218 .00028290 00000-0 10326-2 0 9999
2 62153 43.0024 251.5441 0002215 264.0397 96.0202 15.27610313 60043
Epoch: Dec 19, 2025 • Age: 18 hours

現在のステータス

高度 482.3 km
速度 7.63 km/s
衛星直下点 12.29°N, 100.82°W
打ち上げ日 Nov 30, 2024
運用期間 1 years
タイプ internet

技術仕様

分類 Payload
質量 730.00 kg
乾燥質量 700.00 kg
総質量 730.00 kg
長さ 0.30 m
直径 4.10 m
スパン 29.00 m
形状 Box + pan
製造者 SPXS
バスタイプ Starlink V2M
フェーズステータス In Orbit
所有者/国 SPXS/US

大規模コンステレーション

Loading constellations...